,,,PA_Meas_PMT16A,,PR_Meas_QMR101_102,,RH_Meas_QMH101,,SR_Meas_QMS101,,TA_Meas_QMH101,,GenWind,,GenWind,
date,time,status,PA,status,PR,status,RH,status,SR,status,TA,status,DirAvg,status,SpdAvg,
2009-10-12, 00:00:05,VALID,1010.04,VALID,0,VALID,96.42,VALID,0,VALID,25.996,VALID,23,VALID,0.731641,
2009-10-12, 00:01:05,VALID,1010.02,VALID,0,VALID,96.5802,VALID,0,VALID,25.9356,VALID,355,VALID,0.604688,
2009-10-12, 00:02:05,VALID,1009.99,VALID,0,VALID,96.7632,VALID,0,VALID,25.9181,VALID,22,VALID,0.569531,
2009-10-12, 00:03:05,VALID,1010.02,VALID,0,VALID,96.8623,VALID,0,VALID,25.8771,VALID,5,VALID,0.819922,
2009-10-12, 00:04:05,VALID,1010.02,VALID,0,VALID,96.9615,VALID,0,VALID,25.8381,VALID,360,VALID,0.83125,
2009-10-12, 00:05:05,VALID,1010.04,VALID,0,VALID,97.0911,VALID,0,VALID,25.7991,VALID,349,VALID,0.660547,
2009-10-12, 00:06:05,VALID,1010.09,VALID,0,VALID,97.2207,VALID,0,VALID,25.7601,VALID,350,VALID,0.719141,
2009-10-12, 00:07:05,VALID,1010.12,VALID,0,VALID,97.3427,VALID,0,VALID,25.7621,VALID,354,VALID,0.738281,
2009-10-12, 00:08:05,VALID,1010.17,VALID,0,VALID,97.4724,VALID,0,VALID,25.7211,VALID,16,VALID,0.227344,
2009-10-12, 00:09:05,VALID,1010.21,VALID,0,VALID,97.5639,VALID,0,VALID,25.7211,VALID,84,VALID,0.380078,
2009-10-12, 00:10:05,VALID,1010.23,VALID,0,VALID,97.6249,VALID,0,VALID,25.7211,VALID,69,VALID,0.0308594,
2009-10-12, 00:11:05,VALID,1010.26,VALID,0,VALID,97.663,VALID,0,VALID,25.6997,VALID,69,VALID,0,
2009-10-12, 00:12:05,VALID,1010.24,VALID,0,VALID,97.7317,VALID,0,VALID,25.7211,VALID,3,VALID,0.670313,
2009-10-12, 00:13:05,VALID,1010.24,VALID,0,VALID,97.7927,VALID,0.105969,VALID,25.7211,VALID,73,VALID,0.414453,
2009-10-12, 00:14:05,VALID,1010.18,VALID,0,VALID,97.8155,VALID,0,VALID,25.7406,VALID,125,VALID,0.336719,
2009-10-12, 00:15:05,VALID,1010.14,VALID,0,VALID,97.8537,VALID,0,VALID,25.7601,VALID,127,VALID,0.187891,
2009-10-12, 00:16:05,VALID,1010.1,VALID,0,VALID,97.8765,VALID,0.105969,VALID,25.7601,VALID,165,VALID,0.178906,
2009-10-12, 00:17:05,VALID,1010.04,VALID,0,VALID,97.8842,VALID,0,VALID,25.7796,VALID,310,VALID,0.706641,
2009-10-12, 00:18:05,VALID,1010.03,VALID,0,VALID,97.8842,VALID,0,VALID,25.7971,VALID,2,VALID,0.571875,
2009-10-12, 00:19:05,VALID,1010.01,VALID,0,VALID,97.8537,VALID,0.105969,VALID,25.8166,VALID,312,VALID,0.405859,
2009-10-12, 00:20:05,VALID,1009.99,VALID,0,VALID,97.8155,VALID,0,VALID,25.8381,VALID,314,VALID,0.182812,
2009-10-12, 00:21:05,VALID,1009.98,VALID,0,VALID,97.7927,VALID,0,VALID,25.8361,VALID,314,VALID,0,
2009-10-12, 00:22:05,VALID,1009.99,VALID,0,VALID,97.7622,VALID,0,VALID,25.8966,VALID,321,VALID,0,
2009-10-12, 00:23:05,VALID,1009.99,VALID,0,VALID,97.8003,VALID,0,VALID,25.9161,VALID,321,VALID,0,
2009-10-12, 00:24:05,VALID,1009.98,VALID,0,VALID,97.7774,VALID,0,VALID,25.9141,VALID,328,VALID,0.590625,
2009-10-12, 00:25:05,VALID,1009.96,VALID,0,VALID,97.7469,VALID,0,VALID,25.9122,VALID,310,VALID,0.307422,
2009-10-12, 00:26:05,VALID,1009.95,VALID,0,VALID,97.6706,VALID,0,VALID,25.9726,VALID,349,VALID,0.280078,
2009-10-12, 00:27:05,VALID,1009.89,VALID,0,VALID,97.358,VALID,0.105969,VALID,25.9921,VALID,314,VALID,1.87305,
2009-10-12, 00:28:05,VALID,1009.88,VALID,0,VALID,96.7861,VALID,0.105969,VALID,26.0311,VALID,328,VALID,1.34922,
2009-10-12, 00:29:05,VALID,1009.84,VALID,0,VALID,95.993,VALID,0,VALID,26.0506,VALID,300,VALID,0.994141,
2009-10-12, 00:30:05,VALID,1009.83,VALID,0,VALID,95.8023,VALID,0,VALID,26.1091,VALID,327,VALID,0.713672,
2009-10-12, 00:31:05,VALID,1009.77,VALID,0,VALID,95.5431,VALID,0.105969,VALID,26.1286,VALID,298,VALID,0.647656,
2009-10-12, 00:32:05,VALID,1009.72,VALID,0,VALID,95.3067,VALID,0,VALID,26.1481,VALID,308,VALID,0.933984,
2009-10-12, 00:33:05,VALID,1009.7,VALID,0,VALID,95.1542,VALID,0,VALID,26.1696,VALID,291,VALID,1.22383,
2009-10-12, 00:34:05,VALID,1009.7,VALID,0,VALID,94.7957,VALID,0,VALID,26.1481,VALID,315,VALID,0.80625,
2009-10-12, 00:35:05,VALID,1009.66,VALID,0,VALID,94.5822,VALID,0,VALID,26.1891,VALID,342,VALID,0.508984,
2009-10-12, 00:36:05,VALID,1009.65,VALID,0,VALID,94.5517,VALID,0,VALID,26.1676,VALID,344,VALID,0.503516,
2009-10-12, 00:37:05,VALID,1009.66,VALID,0,VALID,94.628,VALID,0,VALID,26.1696,VALID,352,VALID,0.482031,
2009-10-12, 00:38:05,VALID,1009.63,VALID,0,VALID,94.3001,VALID,0.105969,VALID,26.1481,VALID,6,VALID,1.15469,
2009-10-12, 00:39:05,VALID,1009.62,VALID,0,VALID,94.0484,VALID,0.105969,VALID,26.1286,VALID,293,VALID,0.630859,
2009-10-12, 00:40:05,VALID,1009.6,VALID,0,VALID,94.1399,VALID,0,VALID,26.1286,VALID,314,VALID,1.17852,
2009-10-12, 00:41:05,VALID,1009.61,VALID,0,VALID,93.9264,VALID,0,VALID,26.0896,VALID,328,VALID,0.744141,
2009-10-12, 00:42:05,VALID,1009.63,VALID,0,VALID,93.4079,VALID,0,VALID,26.0916,VALID,302,VALID,0.866797,
2009-10-12, 00:43:05,VALID,1009.64,VALID,0,VALID,92.6071,VALID,0.105969,VALID,26.0506,VALID,359,VALID,0.596875,
2009-10-12, 00:44:05,VALID,1009.67,VALID,0,VALID,91.021,VALID,0.105969,VALID,26.0311,VALID,278,VALID,1.26992,
2009-10-12, 00:45:05,VALID,1009.69,VALID,0,VALID,89.9381,VALID,0,VALID,25.9921,VALID,294,VALID,0.841016,
2009-10-12, 00:46:05,VALID,1009.69,VALID,0,VALID,89.3738,VALID,0,VALID,25.9726,VALID,318,VALID,0.890625,
2009-10-12, 00:47:05,VALID,1009.69,VALID,0,VALID,89.4272,VALID,0,VALID,25.9746,VALID,271,VALID,0.344922,
2009-10-12, 00:48:05,VALID,1009.7,VALID,0,VALID,89.4043,VALID,0,VALID,25.9336,VALID,354,VALID,0.466016,
2009-10-12, 00:49:05,VALID,1009.67,VALID,0,VALID,89.2899,VALID,0.105969,VALID,25.8751,VALID,40,VALID,1.0625,
2009-10-12, 00:50:05,VALID,1009.61,VALID,0,VALID,89.2594,VALID,0,VALID,25.8166,VALID,104,VALID,1.06875,
2009-10-12, 00:51:05,VALID,1009.6,VALID,0,VALID,89.7322,VALID,0,VALID,25.7387,VALID,305,VALID,0.731641,
2009-10-12, 00:52:05,VALID,1009.59,VALID,0,VALID,89.5873,VALID,0,VALID,25.6802,VALID,273,VALID,0.884766,
2009-10-12, 00:53:05,VALID,1009.6,VALID,0,VALID,89.1603,VALID,0,VALID,25.6217,VALID,315,VALID,1.28711,
2009-10-12, 00:54:05,VALID,1009.57,VALID,0,VALID,89.2366,VALID,0,VALID,25.5846,VALID,316,VALID,1.25937,
2009-10-12, 00:55:05,VALID,1009.53,VALID,0,VALID,89.4043,VALID,0,VALID,25.5242,VALID,300,VALID,1.18359,
2009-10-12, 00:56:05,VALID,1009.56,VALID,0,VALID,90.0449,VALID,0,VALID,25.4852,VALID,290,VALID,1.29648,
2009-10-12, 00:57:05,VALID,1009.54,VALID,0,VALID,90.3194,VALID,0,VALID,25.4462,VALID,300,VALID,1.36719,
2009-10-12, 00:58:05,VALID,1009.46,VALID,0,VALID,90.5634,VALID,0,VALID,25.4072,VALID,308,VALID,1.13164,
2009-10-12, 00:59:04,VALID,1009.42,VALID,0,VALID,90.8151,VALID,0,VALID,25.3897,VALID,303,VALID,2.19805,
2009-10-12, 01:00:04,VALID,1009.3,VALID,0,VALID,91.8217,VALID,0,VALID,25.3702,VALID,307,VALID,1.35547,
2009-10-12, 01:01:04,VALID,1009.26,VALID,0,VALID,92.4546,VALID,0.105969,VALID,25.3098,VALID,346,VALID,1.6625,
2009-10-12, 01:02:04,VALID,1009.24,VALID,0,VALID,93.1562,VALID,0.105969,VALID,25.2513,VALID,328,VALID,1.74531,
2009-10-12, 01:03:04,VALID,1009.25,VALID,0,VALID,93.4841,VALID,0,VALID,25.2123,VALID,313,VALID,1.98398,
2009-10-12, 01:04:04,VALID,1009.28,VALID,0,VALID,93.69,VALID,0,VALID,25.1928,VALID,305,VALID,1.20742,
2009-10-12, 01:05:04,VALID,1009.28,VALID,0,VALID,93.9188,VALID,0,VALID,25.2142,VALID,299,VALID,0.568359,
2009-10-12, 01:06:04,VALID,1009.33,VALID,0,VALID,94.0027,VALID,0,VALID,25.1733,VALID,310,VALID,1.31211,
2009-10-12, 01:07:04,VALID,1009.38,VALID,0,VALID,94.0637,VALID,0.105969,VALID,25.1928,VALID,323,VALID,1.45547,
2009-10-12, 01:08:04,VALID,1009.44,VALID,0,VALID,94.2924,VALID,0,VALID,25.1538,VALID,307,VALID,1.10195,
2009-10-12, 01:09:04,VALID,1009.46,VALID,0,VALID,94.4221,VALID,0.105969,VALID,25.1343,VALID,1,VALID,1.36211,
2009-10-12, 01:10:04,VALID,1009.55,VALID,0,VALID,94.3153,VALID,0.105969,VALID,25.1362,VALID,5,VALID,1.54766,
2009-10-12, 01:11:04,VALID,1009.61,VALID,0,VALID,94.2924,VALID,0.105969,VALID,25.1148,VALID,272,VALID,0.521094,
2009-10-12, 01:12:04,VALID,1009.69,VALID,0,VALID,94.3687,VALID,0,VALID,25.1148,VALID,285,VALID,0.826563,
2009-10-12, 01:13:04,VALID,1009.76,VALID,0,VALID,94.2467,VALID,0.105969,VALID,25.1148,VALID,329,VALID,0.414063,
2009-10-12, 01:14:04,VALID,1009.82,VALID,0,VALID,94.2619,VALID,0.105969,VALID,25.1148,VALID,13,VALID,0.305078,
2009-10-12, 01:15:04,VALID,1009.87,VALID,0,VALID,94.0865,VALID,0.105969,VALID,25.1343,VALID,350,VALID,0.7375,
2009-10-12, 01:16:04,VALID,1009.91,VALID,0,VALID,93.7434,VALID,0.105969,VALID,25.1148,VALID,329,VALID,1.90547,
2009-10-12, 01:17:04,VALID,1009.91,VALID,0,VALID,93.9264,VALID,0,VALID,25.0759,VALID,307,VALID,1.22148,
2009-10-12, 01:18:04,VALID,1009.93,VALID,0,VALID,94.2009,VALID,0,VALID,25.0369,VALID,346,VALID,0.433203,
2009-10-12, 01:19:04,VALID,1009.95,VALID,0,VALID,94.3992,VALID,0.105969,VALID,25.0174,VALID,291,VALID,0.602734,
2009-10-12, 01:20:04,VALID,1009.91,VALID,0,VALID,94.2238,VALID,0.105969,VALID,25.0193,VALID,313,VALID,0.733984,
2009-10-12, 01:21:04,VALID,1009.95,VALID,0,VALID,94.1399,VALID,0,VALID,25.0174,VALID,324,VALID,1.17227,
2009-10-12, 01:22:04,VALID,1009.94,VALID,0,VALID,94.7271,VALID,0,VALID,25.0174,VALID,342,VALID,0.375391,
2009-10-12, 01:23:04,VALID,1010,VALID,0,VALID,94.3001,VALID,0,VALID,24.9979,VALID,334,VALID,0.638281,
2009-10-12, 01:24:04,VALID,1010.05,VALID,0,VALID,94.2696,VALID,0,VALID,24.9784,VALID,48,VALID,0.852734,
2009-10-12, 01:25:04,VALID,1010.1,VALID,0,VALID,94.6508,VALID,0,VALID,24.9608,VALID,34,VALID,0.994531,
2009-10-12, 01:26:04,VALID,1010.16,VALID,0,VALID,94.7271,VALID,0.105969,VALID,24.9199,VALID,85,VALID,1.06367,
2009-10-12, 01:27:04,VALID,1010.25,VALID,0,VALID,94.8186,VALID,0,VALID,24.9218,VALID,105,VALID,1.58867,
2009-10-12, 01:28:04,VALID,1010.29,VALID,0,VALID,94.9711,VALID,0,VALID,24.8615,VALID,86,VALID,1.64609,
2009-10-12, 01:29:04,VALID,1010.35,VALID,0,VALID,95.2533,VALID,0.105969,VALID,24.8615,VALID,61,VALID,1.61797,
2009-10-12, 01:30:04,VALID,1010.37,VALID,0,VALID,95.177,VALID,0.105969,VALID,24.8438,VALID,68,VALID,1.86719,
2009-10-12, 01:31:04,VALID,1010.36,VALID,0,VALID,95.4897,VALID,0,VALID,24.842,VALID,85,VALID,1.37031,
2009-10-12, 01:32:04,VALID,1010.4,VALID,0,VALID,95.6498,VALID,0,VALID,24.8225,VALID,35,VALID,1.06875,
2009-10-12, 01:33:04,VALID,1010.39,VALID,0,VALID,95.871,VALID,0,VALID,24.803,VALID,350,VALID,0.626172,
2009-10-12, 01:34:04,VALID,1010.39,VALID,0,VALID,96.2218,VALID,0.105969,VALID,24.7835,VALID,176,VALID,1.2082,
2009-10-12, 01:35:04,VALID,1010.3,VALID,0.5,VALID,96.115,VALID,0.105969,VALID,24.5691,VALID,349,VALID,2.57148,
2009-10-12, 01:36:04,VALID,1010.34,VALID,0.5,VALID,95.6041,VALID,0,VALID,24.2768,VALID,65,VALID,3.93945,
2009-10-12, 01:37:04,VALID,1010.25,VALID,0,VALID,95.5049,VALID,0,VALID,24.0253,VALID,52,VALID,3.00195,
2009-10-12, 01:38:04,VALID,1010.22,VALID,0,VALID,95.6346,VALID,0,VALID,23.7896,VALID,64,VALID,3.2043,
2009-10-12, 01:39:04,VALID,1010.19,VALID,0.5,VALID,96.2828,VALID,0,VALID,23.6338,VALID,81,VALID,1.10781,
2009-10-12, 01:40:04,VALID,1010.21,VALID,0.5,VALID,96.8242,VALID,0.105969,VALID,23.4974,VALID,99,VALID,1.07852,
2009-10-12, 01:41:04,VALID,1010.22,VALID,0.5,VALID,96.9462,VALID,0,VALID,23.3026,VALID,90,VALID,2.36016,
2009-10-12, 01:42:04,VALID,1010.19,VALID,0.5,VALID,97.175,VALID,0,VALID,23.1095,VALID,90,VALID,1.89648,
2009-10-12, 01:43:04,VALID,1010.17,VALID,0.5,VALID,97.3732,VALID,0,VALID,22.9129,VALID,78,VALID,1.65,
2009-10-12, 01:44:04,VALID,1010.13,VALID,0.5,VALID,97.6096,VALID,0,VALID,22.8173,VALID,79,VALID,1.40898,
2009-10-12, 01:45:04,VALID,1010.1,VALID,0,VALID,97.8613,VALID,0,VALID,22.7588,VALID,103,VALID,1.71055,
2009-10-12, 01:46:04,VALID,1010.12,VALID,0.5,VALID,98.1129,VALID,0.105969,VALID,22.7182,VALID,46,VALID,0.994141,
2009-10-12, 01:47:04,VALID,1010.12,VALID,0,VALID,98.2731,VALID,0,VALID,22.6987,VALID,106,VALID,0.634766,
2009-10-12, 01:48:04,VALID,1010.11,VALID,0.5,VALID,98.4408,VALID,0,VALID,22.6792,VALID,65,VALID,1.32422,
2009-10-12, 01:49:04,VALID,1010.09,VALID,0,VALID,98.5476,VALID,0,VALID,22.7004,VALID,60,VALID,0.411719,
2009-10-12, 01:50:04,VALID,1010.09,VALID,0.5,VALID,98.6086,VALID,0.105969,VALID,22.6987,VALID,52,VALID,1.85156,
2009-10-12, 01:51:04,VALID,1010.05,VALID,0,VALID,98.662,VALID,0.105969,VALID,22.7394,VALID,81,VALID,1.1457,
2009-10-12, 01:52:04,VALID,1010.05,VALID,0,VALID,98.7078,VALID,0.105969,VALID,22.7376,VALID,100,VALID,1.01875,
2009-10-12, 01:53:04,VALID,1010.05,VALID,0.5,VALID,98.7535,VALID,0.105969,VALID,22.7571,VALID,67,VALID,1.15703,
2009-10-12, 01:54:04,VALID,1009.99,VALID,0,VALID,98.7688,VALID,0,VALID,22.7766,VALID,69,VALID,0.820703,
2009-10-12, 01:55:04,VALID,1009.99,VALID,0,VALID,98.784,VALID,0,VALID,22.8155,VALID,76,VALID,0.992969,
2009-10-12, 01:56:04,VALID,1009.97,VALID,0.5,VALID,98.7993,VALID,0.105969,VALID,22.8155,VALID,92,VALID,0.644922,
2009-10-12, 01:57:04,VALID,1009.97,VALID,0,VALID,98.8221,VALID,0,VALID,22.8562,VALID,104,VALID,0.954297,
2009-10-12, 01:58:04,VALID,1010,VALID,0,VALID,98.7993,VALID,0,VALID,22.8545,VALID,111,VALID,1.35664,
2009-10-12, 01:59:04,VALID,1010.03,VALID,0.5,VALID,98.784,VALID,0.105969,VALID,22.9324,VALID,126,VALID,1.27188,
2009-10-12, 02:00:04,VALID,1010.03,VALID,0,VALID,98.7764,VALID,0.105969,VALID,22.9714,VALID,103,VALID,1.58672,
2009-10-12, 02:01:04,VALID,1010,VALID,0.5,VALID,98.7993,VALID,0.105969,VALID,22.9714,VALID,108,VALID,1.82656,
2009-10-12, 02:02:04,VALID,1010,VALID,0.5,VALID,98.8755,VALID,0,VALID,22.9324,VALID,107,VALID,2.86211,
2009-10-12, 02:03:04,VALID,1009.99,VALID,0,VALID,98.845,VALID,0,VALID,22.9731,VALID,86,VALID,1.43828,
2009-10-12, 02:04:04,VALID,1010,VALID,0.5,VALID,98.9365,VALID,0.105969,VALID,22.874,VALID,91,VALID,3.05117,
2009-10-12, 02:05:04,VALID,1009.99,VALID,0.5,VALID,98.9442,VALID,0.105969,VALID,22.8545,VALID,90,VALID,2.33555,
2009-10-12, 02:06:04,VALID,1010.01,VALID,0,VALID,98.8755,VALID,0.105969,VALID,22.8545,VALID,97,VALID,1.86328,
2009-10-12, 02:07:04,VALID,1010.04,VALID,0,VALID,98.8298,VALID,0.105969,VALID,22.8935,VALID,100,VALID,1.69297,
2009-10-12, 02:08:04,VALID,1010.09,VALID,0.5,VALID,98.8145,VALID,0.105969,VALID,22.9324,VALID,92,VALID,1.66953,
2009-10-12, 02:09:04,VALID,1010.1,VALID,0,VALID,98.8221,VALID,0,VALID,22.9342,VALID,82,VALID,1.35625,
2009-10-12, 02:10:04,VALID,1010.08,VALID,0,VALID,98.8069,VALID,0,VALID,22.9536,VALID,79,VALID,1.02109,
2009-10-12, 02:11:04,VALID,1010.08,VALID,0,VALID,98.8069,VALID,0,VALID,22.9536,VALID,68,VALID,0.229297,
2009-10-12, 02:12:04,VALID,1010.03,VALID,0,VALID,98.8221,VALID,0.105969,VALID,22.9714,VALID,71,VALID,0.730469,
2009-10-12, 02:13:04,VALID,1010,VALID,0.5,VALID,98.8069,VALID,0.105969,VALID,22.9909,VALID,81,VALID,0.973047,
2009-10-12, 02:14:04,VALID,1010.01,VALID,0,VALID,98.8298,VALID,0.105969,VALID,22.9909,VALID,57,VALID,0.471094,
2009-10-12, 02:15:04,VALID,1009.98,VALID,0,VALID,98.8298,VALID,0.105969,VALID,22.9909,VALID,44,VALID,0.255859,
2009-10-12, 02:16:04,VALID,1010.01,VALID,0,VALID,98.8374,VALID,0.105969,VALID,22.9909,VALID,71,VALID,0.751953,
2009-10-12, 02:17:04,VALID,1009.99,VALID,0.5,VALID,98.8298,VALID,0.105969,VALID,22.9696,VALID,87,VALID,1.29648,
2009-10-12, 02:18:04,VALID,1010,VALID,0,VALID,98.8603,VALID,0.105969,VALID,22.9324,VALID,72,VALID,1.23828,
2009-10-12, 02:19:04,VALID,1009.99,VALID,0,VALID,98.9137,VALID,0.105969,VALID,22.874,VALID,85,VALID,1.63633,
2009-10-12, 02:20:04,VALID,1009.99,VALID,0,VALID,98.9975,VALID,0,VALID,22.7961,VALID,97,VALID,1.5168,
2009-10-12, 02:21:04,VALID,1009.92,VALID,0,VALID,98.9899,VALID,0.105969,VALID,22.7182,VALID,95,VALID,1.93633,
2009-10-12, 02:22:04,VALID,1009.92,VALID,0,VALID,98.9518,VALID,0.105969,VALID,22.7182,VALID,95,VALID,1.6,
2009-10-12, 02:23:04,VALID,1009.93,VALID,0,VALID,98.8984,VALID,0.105969,VALID,22.7376,VALID,81,VALID,0.852344,
2009-10-12, 02:24:04,VALID,1009.86,VALID,0,VALID,98.9594,VALID,0,VALID,22.6809,VALID,123,VALID,2.23945,
2009-10-12, 02:25:04,VALID,1009.87,VALID,0,VALID,98.9823,VALID,0,VALID,22.6614,VALID,107,VALID,2.10664,
2009-10-12, 02:26:04,VALID,1009.88,VALID,0,VALID,98.906,VALID,0,VALID,22.6614,VALID,140,VALID,1.22578,
2009-10-12, 02:27:04,VALID,1009.88,VALID,0.5,VALID,98.9365,VALID,0,VALID,22.642,VALID,145,VALID,1.15,
2009-10-12, 02:28:04,VALID,1009.87,VALID,0,VALID,98.906,VALID,0,VALID,22.642,VALID,134,VALID,1.19648,
2009-10-12, 02:29:04,VALID,1009.84,VALID,0,VALID,98.9518,VALID,0,VALID,22.603,VALID,136,VALID,1.38984,
2009-10-12, 02:30:04,VALID,1009.81,VALID,0,VALID,98.9365,VALID,0,VALID,22.5623,VALID,157,VALID,1.00195,
2009-10-12, 02:31:04,VALID,1009.76,VALID,0,VALID,98.9442,VALID,0,VALID,22.564,VALID,163,VALID,0.957812,
2009-10-12, 02:32:04,VALID,1009.72,VALID,0,VALID,98.9289,VALID,0,VALID,22.5658,VALID,144,VALID,0.960938,
2009-10-12, 02:33:04,VALID,1009.66,VALID,0,VALID,98.9518,VALID,0,VALID,22.5251,VALID,144,VALID,0.94375,
2009-10-12, 02:34:04,VALID,1009.6,VALID,0,VALID,98.9442,VALID,0,VALID,22.5446,VALID,172,VALID,0.39375,
2009-10-12, 02:35:04,VALID,1009.54,VALID,0,VALID,98.906,VALID,0,VALID,22.5446,VALID,183,VALID,0.398438,
2009-10-12, 02:36:04,VALID,1009.47,VALID,0,VALID,98.9137,VALID,0,VALID,22.5251,VALID,176,VALID,0.527734,
2009-10-12, 02:37:04,VALID,1009.44,VALID,0,VALID,98.9213,VALID,0,VALID,22.5463,VALID,192,VALID,0.820703,
2009-10-12, 02:38:04,VALID,1009.45,VALID,0,VALID,98.9213,VALID,0,VALID,22.5251,VALID,194,VALID,0.254297,
2009-10-12, 02:39:04,VALID,1009.47,VALID,0,VALID,98.9213,VALID,0.105969,VALID,22.5429,VALID,194,VALID,0.132813,
2009-10-12, 02:40:04,VALID,1009.49,VALID,0,VALID,98.8755,VALID,0.105969,VALID,22.5429,VALID,279,VALID,0.466406,
2009-10-12, 02:41:04,VALID,1009.47,VALID,0,VALID,98.8603,VALID,0.105969,VALID,22.6013,VALID,318,VALID,0.505469,
2009-10-12, 02:42:04,VALID,1009.44,VALID,0,VALID,98.8374,VALID,0.105969,VALID,22.6208,VALID,290,VALID,0.327344,
2009-10-12, 02:43:04,VALID,1009.42,VALID,0,VALID,98.8908,VALID,0.105969,VALID,22.6208,VALID,218,VALID,0.00585938,
2009-10-12, 02:44:04,VALID,1009.39,VALID,0,VALID,98.8984,VALID,0.105969,VALID,22.6208,VALID,218,VALID,0,
2009-10-12, 02:45:04,VALID,1009.33,VALID,0.5,VALID,98.906,VALID,0.105969,VALID,22.6402,VALID,232,VALID,0,
2009-10-12, 02:46:04,VALID,1009.28,VALID,0,VALID,98.906,VALID,0.105969,VALID,22.6402,VALID,315,VALID,0,
2009-10-12, 02:47:04,VALID,1009.24,VALID,0,VALID,98.8603,VALID,0.105969,VALID,22.6597,VALID,316,VALID,0,
2009-10-12, 02:48:04,VALID,1009.22,VALID,0,VALID,98.8831,VALID,0,VALID,22.6987,VALID,316,VALID,0,
2009-10-12, 02:49:04,VALID,1009.17,VALID,0.5,VALID,98.8755,VALID,0.105969,VALID,22.6792,VALID,290,VALID,0.00664063,
2009-10-12, 02:50:04,VALID,1009.15,VALID,0,VALID,98.906,VALID,0.105969,VALID,22.6597,VALID,313,VALID,0.784766,
2009-10-12, 02:51:04,VALID,1009.12,VALID,0,VALID,98.8984,VALID,0.105969,VALID,22.6792,VALID,294,VALID,0.500781,
2009-10-12, 02:52:04,VALID,1009.1,VALID,0,VALID,98.8755,VALID,0.105969,VALID,22.6987,VALID,280,VALID,0.405078,
2009-10-12, 02:53:04,VALID,1009.1,VALID,0,VALID,98.8679,VALID,0.105969,VALID,22.697,VALID,280,VALID,0.148438,
2009-10-12, 02:54:04,VALID,1009.15,VALID,0,VALID,98.8526,VALID,0,VALID,22.7199,VALID,341,VALID,0.914063,
2009-10-12, 02:55:04,VALID,1009.18,VALID,0,VALID,98.9289,VALID,0,VALID,22.6809,VALID,15,VALID,1.15273,
2009-10-12, 02:56:04,VALID,1009.22,VALID,0,VALID,98.9518,VALID,0,VALID,22.642,VALID,46,VALID,1.06055,
2009-10-12, 02:57:04,VALID,1009.22,VALID,0,VALID,98.9442,VALID,0,VALID,22.6437,VALID,90,VALID,0.496875,
2009-10-12, 02:58:04,VALID,1009.22,VALID,0,VALID,98.9213,VALID,0,VALID,22.603,VALID,87,VALID,0.346875,
2009-10-12, 02:59:04,VALID,1009.2,VALID,0,VALID,98.906,VALID,0,VALID,22.6437,VALID,87,VALID,0.0492188,
2009-10-12, 03:00:04,VALID,1009.17,VALID,0,VALID,98.8679,VALID,0,VALID,22.642,VALID,87,VALID,0,
2009-10-12, 03:01:04,VALID,1009.18,VALID,0,VALID,98.845,VALID,0,VALID,22.6826,VALID,32,VALID,0,
2009-10-12, 03:02:04,VALID,1009.14,VALID,0.5,VALID,98.8679,VALID,0,VALID,22.642,VALID,334,VALID,0,
2009-10-12, 03:03:04,VALID,1009.12,VALID,0,VALID,98.8374,VALID,0,VALID,22.6597,VALID,320,VALID,0,
2009-10-12, 03:04:04,VALID,1009.08,VALID,0,VALID,98.8221,VALID,0,VALID,22.6792,VALID,308,VALID,0,
2009-10-12, 03:05:04,VALID,1009.06,VALID,0,VALID,98.8374,VALID,0,VALID,22.7199,VALID,291,VALID,0.364453,
2009-10-12, 03:06:04,VALID,1009.05,VALID,0,VALID,98.8603,VALID,0,VALID,22.7199,VALID,274,VALID,1.05234,
2009-10-12, 03:07:04,VALID,1009.01,VALID,0,VALID,98.8603,VALID,0,VALID,22.7411,VALID,269,VALID,0.173047,
2009-10-12, 03:08:04,VALID,1009.04,VALID,0,VALID,98.8298,VALID,0,VALID,22.7588,VALID,229,VALID,0.414453,
2009-10-12, 03:09:04,VALID,1009.05,VALID,0,VALID,98.845,VALID,0,VALID,22.7588,VALID,217,VALID,0.46875,
2009-10-12, 03:10:04,VALID,1009.04,VALID,0,VALID,98.8603,VALID,0,VALID,22.7588,VALID,223,VALID,0.246484,
2009-10-12, 03:11:04,VALID,1009.03,VALID,0,VALID,98.8526,VALID,0,VALID,22.78,VALID,166,VALID,0.694922,
2009-10-12, 03:12:04,VALID,1009.03,VALID,0,VALID,98.8603,VALID,0,VALID,22.7199,VALID,163,VALID,0.514844,
2009-10-12, 03:13:04,VALID,1008.98,VALID,0,VALID,98.8755,VALID,0,VALID,22.7199,VALID,163,VALID,0.0691406,
2009-10-12, 03:14:04,VALID,1008.93,VALID,0,VALID,98.8145,VALID,0,VALID,22.7588,VALID,163,VALID,0.189844,
2009-10-12, 03:15:04,VALID,1008.92,VALID,0,VALID,98.8374,VALID,0,VALID,22.7588,VALID,206,VALID,0.383984,
2009-10-12, 03:16:04,VALID,1008.85,VALID,0,VALID,98.8374,VALID,0,VALID,22.7394,VALID,212,VALID,0.666797,
2009-10-12, 03:17:04,VALID,1008.82,VALID,0,VALID,98.845,VALID,0,VALID,22.7394,VALID,199,VALID,0.776563,
2009-10-12, 03:18:04,VALID,1008.82,VALID,0,VALID,98.8755,VALID,0,VALID,22.7199,VALID,199,VALID,0.445313,
2009-10-12, 03:19:04,VALID,1008.82,VALID,0,VALID,98.8526,VALID,0,VALID,22.7199,VALID,170,VALID,0.788281,
2009-10-12, 03:20:04,VALID,1008.87,VALID,0,VALID,98.8831,VALID,0,VALID,22.7004,VALID,148,VALID,1.22695,
2009-10-12, 03:21:04,VALID,1008.92,VALID,0,VALID,98.8679,VALID,0,VALID,22.7004,VALID,127,VALID,1.56602,
2009-10-12, 03:22:04,VALID,1008.98,VALID,0,VALID,98.8298,VALID,0,VALID,22.7394,VALID,127,VALID,1.45898,
2009-10-12, 03:23:04,VALID,1008.97,VALID,0,VALID,98.8069,VALID,0,VALID,22.7588,VALID,124,VALID,1.48086,
2009-10-12, 03:24:04,VALID,1008.97,VALID,0,VALID,98.8526,VALID,0,VALID,22.7182,VALID,131,VALID,1.61211,
2009-10-12, 03:25:04,VALID,1008.98,VALID,0,VALID,98.8679,VALID,0,VALID,22.7394,VALID,125,VALID,1.20117,
2009-10-12, 03:26:04,VALID,1008.98,VALID,0,VALID,98.8831,VALID,0,VALID,22.7004,VALID,125,VALID,0.867578,
2009-10-12, 03:27:04,VALID,1009,VALID,0,VALID,98.8526,VALID,0,VALID,22.7199,VALID,122,VALID,0.614844,
2009-10-12, 03:28:04,VALID,1009,VALID,0,VALID,98.8755,VALID,0,VALID,22.6809,VALID,92,VALID,1.41055,
2009-10-12, 03:29:04,VALID,1009.01,VALID,0,VALID,98.8908,VALID,0,VALID,22.6614,VALID,90,VALID,0.873438,
2009-10-12, 03:30:04,VALID,1009.02,VALID,0,VALID,98.8908,VALID,0,VALID,22.642,VALID,98,VALID,0.909766,
2009-10-12, 03:31:04,VALID,1009.01,VALID,0,VALID,98.8526,VALID,0,VALID,22.6614,VALID,82,VALID,0.630469,
2009-10-12, 03:32:04,VALID,1009.05,VALID,0,VALID,98.8374,VALID,0,VALID,22.6809,VALID,82,VALID,0.406641,
2009-10-12, 03:33:04,VALID,1009.07,VALID,0,VALID,98.8145,VALID,0,VALID,22.6809,VALID,54,VALID,0.411328,
2009-10-12, 03:34:04,VALID,1009.06,VALID,0,VALID,98.8374,VALID,0,VALID,22.6809,VALID,3,VALID,0.25625,
2009-10-12, 03:35:04,VALID,1009.06,VALID,0,VALID,98.8145,VALID,0,VALID,22.7004,VALID,319,VALID,0.800391,
2009-10-12, 03:36:04,VALID,1009.03,VALID,0,VALID,98.8069,VALID,0,VALID,22.7216,VALID,316,VALID,0.808984,
2009-10-12, 03:37:04,VALID,1009.01,VALID,0,VALID,98.8298,VALID,0,VALID,22.7216,VALID,305,VALID,0.657422,
2009-10-12, 03:38:04,VALID,1008.96,VALID,0,VALID,98.8298,VALID,0,VALID,22.7004,VALID,317,VALID,0.428516,
2009-10-12, 03:39:04,VALID,1008.93,VALID,0,VALID,98.8755,VALID,0.105969,VALID,22.6792,VALID,318,VALID,0.24375,
2009-10-12, 03:40:04,VALID,1008.92,VALID,0,VALID,98.8374,VALID,0.105969,VALID,22.6987,VALID,327,VALID,0,
2009-10-12, 03:41:04,VALID,1008.93,VALID,0,VALID,98.8298,VALID,0.105969,VALID,22.6792,VALID,327,VALID,0,
2009-10-12, 03:42:04,VALID,1008.95,VALID,0,VALID,98.8221,VALID,0.105969,VALID,22.6792,VALID,327,VALID,0,